Minneapolis Flying Cloud, MN

12:45 PM CDT on May 28, 2017 (GMT -0500)
Flying Cloud

Weather History for KFCM - January, 2011

Change the Weather History Date:

Sunday, January 9, 2011

  Actual Average Record
Temperature  
Mean Temperature 4 °F -  
Max Temperature 16 °F 22 °F 48 °F (2012)
Min Temperature -7 °F 7 °F -20 °F (1999)
Degree Days  
Heating Degree Days 60    
Moisture  
Dew Point -2 °F    
Average Humidity 74    
Maximum Humidity 92    
Minimum Humidity 59    
Precipitation  
Precipitation 0.00 in - - ()
Sea Level Pressure  
Sea Level Pressure 30.34 in    
Wind  
Wind Speed 2 mph (ENE)    
Max Wind Speed 8 mph    
Max Gust Speed -    
Visibility 9 miles    
Events      
Averages and records for this station are not official NWS values.
T = Trace of Precipitation, MM = Missing Value Source: NWS Daily Summary

Daily Weather History Graph

Daily Weather History Graph

Search for Another Location

Airport or City:

Trip Planner

Search our weather history database for the weather conditions in past years. The results will help you decide how hot, cold, wet, or windy it might be!

Date:

Astronomy

Jan. 09, 2011 Rise Set
Actual Time 7:50 AM CST 4:51 PM CST
Civil Twilight 7:17 AM CST 5:24 PM CST
Nautical Twilight 6:40 AM CST 6:01 PM CST
Astronomical Twilight 6:05 AM CST 6:36 PM CST
Moon 10:07 AM CST (1/9) 10:38 PM CST (1/9)
Length of Visible Light 10h 07m
Length of Day
9h 01m
Waxing Crescent, 25% of the Moon is Illuminated
Jan 9
Waxing Crescent
Jan 12
First Quarter
Jan 19
Full
Jan 26
Last Quarter
Feb 2
New

Hourly Weather History & Observations

Time (CST) Temp. Windchill Dew Point Humidity Pressure Visibility Wind Dir Wind Speed Gust Speed Precip Events Conditions
12:53 AM -2.9 °F - -7.1 °F 82% 30.23 in 9.0 mi Calm Calm - N/A   Clear
1:53 AM -2.9 °F -11.2 °F -9.0 °F 75% 30.25 in 10.0 mi WSW 3.5 mph - N/A   Clear
2:53 AM -5.1 °F - -9.0 °F 83% 30.28 in 10.0 mi Calm Calm - N/A   Clear
3:53 AM -5.1 °F - -9.0 °F 83% 30.28 in 10.0 mi Calm Calm - N/A   Clear
4:53 AM -6.0 °F - -9.9 °F 83% 30.29 in 10.0 mi Calm Calm - N/A   Clear
5:53 AM -7.1 °F - -11.9 °F 79% 30.29 in 10.0 mi Calm Calm - N/A   Clear
6:53 AM -7.1 °F -15.9 °F -11.9 °F 79% 30.30 in 10.0 mi NNE 3.5 mph - N/A   Clear
7:53 AM -7.1 °F - -11.9 °F 79% 30.30 in 8.0 mi Calm Calm - N/A   Clear
8:53 AM -2.9 °F - -9.0 °F 75% 30.33 in 8.0 mi Calm Calm - N/A   Clear
9:29 AM -2.2 °F - -4.0 °F 92% 30.27 in 3.0 mi Calm Calm - N/A   Partly Cloudy
9:53 AM -0.0 °F - -2.9 °F 88% 30.35 in 9.0 mi Calm Calm - N/A   Clear
10:53 AM 3.0 °F - 1.0 °F 91% 30.38 in 9.0 mi Calm Calm - N/A   Clear
11:53 AM 7.0 °F - 3.0 °F 84% 30.37 in 9.0 mi Calm Calm - N/A   Clear
12:53 PM 10.0 °F - 3.0 °F 73% 30.37 in 10.0 mi Calm Calm - N/A   Clear
1:53 PM 14.0 °F - 3.9 °F 64% 30.37 in 10.0 mi Calm Calm - N/A   Clear
2:53 PM 16.0 °F - 3.9 °F 59% 30.37 in 10.0 mi Calm Calm - N/A   Clear
3:53 PM 15.1 °F 6.4 °F 3.0 °F 59% 30.38 in 10.0 mi ENE 5.8 mph - N/A   Clear
4:53 PM 14.0 °F 6.5 °F 3.0 °F 62% 30.38 in 10.0 mi East 4.6 mph - N/A   Clear
5:53 PM 14.0 °F 2.9 °F 3.0 °F 62% 30.39 in 10.0 mi East 8.1 mph - N/A   Clear
6:53 PM 12.9 °F 5.2 °F 3.0 °F 65% 30.40 in 10.0 mi East 4.6 mph - N/A   Partly Cloudy
7:53 PM 12.0 °F 4.1 °F 1.9 °F 64% 30.40 in 10.0 mi ENE 4.6 mph - N/A   Overcast
8:53 PM 12.0 °F 4.1 °F 3.0 °F 67% 30.40 in 10.0 mi East 4.6 mph - N/A   Overcast
9:53 PM 12.9 °F 3.8 °F 3.9 °F 67% 30.40 in 10.0 mi ENE 5.8 mph - N/A   Overcast
10:53 PM 12.9 °F 5.2 °F 3.9 °F 67% 30.40 in 10.0 mi East 4.6 mph - N/A   Mostly Cloudy
11:53 PM 12.9 °F 3.8 °F 3.9 °F 67% 30.40 in 10.0 mi ENE 5.8 mph - N/A   Overcast